Pomona, NJ

6:32 AM EST on February 08, 2016 (GMT -0500)
Atlantic City International

Weather History for KACY - January, 2014

Change the Weather History Date:

Sunday, January 12, 2014

  Actual Average Record
Temperature  
Mean Temperature 41 °F 33 °F  
Max Temperature 53 °F 41 °F 63 °F (1913)
Min Temperature 29 °F 24 °F -5 °F (1981)
Degree Days  
Heating Degree Days 24 32  
Month to date heating degree days 433 382  
Since 1 July heating degree days 2233 2151  
Cooling Degree Days 0 0  
Month to date cooling degree days 0 0  
Year to date cooling degree days 0 0  
Moisture  
Dew Point 34 °F    
Average Humidity 71    
Maximum Humidity 93    
Minimum Humidity 49    
Precipitation  
Precipitation 0.04 in 0.11 in 1.19 in (1915)
Month to date precipitation 1.84 1.28  
Year to date precipitation 1.84 1.28  
Snow  
Snow 0.00 in 0.10 in 2.20 in (1979)
Month to date snowfall 6.5 1.4  
Since 1 July snowfall 9.8 5.3  
Snow Depth 0.00 in    
Sea Level Pressure  
Sea Level Pressure 29.82 in    
Wind  
Wind Speed 11 mph (West)    
Max Wind Speed 30 mph    
Max Gust Speed 41 mph    
Visibility 10 miles    
Events Rain    
T = Trace of Precipitation, MM = Missing Value Source: NWS Daily Summary

Daily Weather History Graph

Daily Weather History Graph

Search for Another Location

Airport or City:

Trip Planner

Search our weather history database for the weather conditions in past years. The results will help you decide how hot, cold, wet, or windy it might be!

Date:

Astronomy

Jan. 12, 2014 Rise Set
Actual Time 7:17 AM EST 4:55 PM EST
Civil Twilight 6:48 AM EST 5:25 PM EST
Nautical Twilight 6:14 AM EST 5:58 PM EST
Astronomical Twilight 5:42 AM EST 6:31 PM EST
Moon 2:21 PM EST (1/12) 4:14 AM EST (1/12)
Length of Visible Light 10h 37m
Length of Day
9h 38m
Waxing Gibbous, 89% of the Moon is Illuminated
Jan 12
Waxing Gibbous
Jan 15
Full
Jan 24
Last Quarter
Jan 30
New
Feb 6
First Quarter

Hourly Weather History & Observations

Time (EST) Temp. Windchill Dew Point Humidity Pressure Visibility Wind Dir Wind Speed Gust Speed Precip Events Conditions
12:14 AM 53.1 °F - 52.0 °F 96% 29.48 in 9.0 mi WSW 9.2 mph - 0.01 in Rain Light Rain
12:30 AM 53.1 °F - 51.1 °F 93% 29.48 in 10.0 mi WSW 9.2 mph - 0.04 in Rain Light Rain
12:54 AM 52.0 °F - 50.0 °F 93% 29.49 in 10.0 mi WSW 10.4 mph - 0.04 in   Scattered Clouds
1:54 AM 50.0 °F - 48.0 °F 93% 29.51 in 10.0 mi West 10.4 mph - N/A   Clear
2:54 AM 48.0 °F - 44.1 °F 86% 29.54 in 10.0 mi West 11.5 mph - N/A   Partly Cloudy
3:54 AM 46.9 °F - 41.0 °F 80% 29.56 in 10.0 mi WNW 16.1 mph - N/A   Mostly Cloudy
4:54 AM 44.1 °F 37.7 °F 36.0 °F 73% 29.58 in 10.0 mi NW 12.7 mph - N/A   Clear
5:54 AM 42.1 °F 37.7 °F 34.0 °F 73% 29.65 in 10.0 mi West 6.9 mph - N/A   Partly Cloudy
6:54 AM 41.0 °F 34.3 °F 33.1 °F 73% 29.70 in 10.0 mi West 11.5 mph - N/A   Clear
7:54 AM 39.9 °F 35.1 °F 32.0 °F 73% 29.76 in 10.0 mi West 6.9 mph - N/A   Clear
8:54 AM 43.0 °F 37.7 °F 32.0 °F 65% 29.81 in 10.0 mi West 9.2 mph - N/A   Mostly Cloudy
9:54 AM 43.0 °F 35.7 °F 30.0 °F 60% 29.83 in 10.0 mi WNW 15.0 mph - N/A   Mostly Cloudy
10:54 AM 45.0 °F 37.1 °F 30.9 °F 58% 29.86 in 10.0 mi WNW 19.6 mph 35.7 mph N/A   Mostly Cloudy
11:54 AM 45.0 °F 36.4 °F 28.0 °F 52% 29.85 in 10.0 mi WNW 23.0 mph 33.4 mph N/A   Scattered Clouds
12:54 PM 45.0 °F 36.6 °F 28.9 °F 53% 29.87 in 10.0 mi WNW 21.9 mph 33.4 mph N/A   Overcast
1:54 PM 46.9 °F - 30.0 °F 52% 29.89 in 10.0 mi WNW 19.6 mph 28.8 mph N/A   Scattered Clouds
2:54 PM 46.9 °F - 28.9 °F 50% 29.93 in 10.0 mi WNW 19.6 mph 31.1 mph N/A   Mostly Cloudy
3:54 PM 45.0 °F 37.1 °F 28.9 °F 53% 29.97 in 10.0 mi WNW 19.6 mph 26.5 mph N/A   Mostly Cloudy
4:54 PM 43.0 °F 37.7 °F 28.9 °F 58% 30.01 in 10.0 mi WNW 9.2 mph - N/A   Clear
5:54 PM 39.0 °F 34.0 °F 28.0 °F 65% 30.03 in 10.0 mi West 6.9 mph - N/A   Clear
6:54 PM 37.9 °F 34.4 °F 28.9 °F 70% 30.06 in 10.0 mi SW 4.6 mph - N/A   Clear
7:54 PM 32.0 °F - 26.1 °F 79% 30.08 in 10.0 mi Calm Calm - N/A   Clear
8:54 PM 34.0 °F 29.8 °F 27.0 °F 75% 30.10 in 10.0 mi SW 4.6 mph - N/A   Clear
9:54 PM 30.0 °F 24.1 °F 26.1 °F 85% 30.12 in 10.0 mi SW 5.8 mph - N/A   Clear
10:54 PM 34.0 °F 31.0 °F 28.0 °F 79% 30.13 in 10.0 mi WSW 3.5 mph - N/A   Clear
11:54 PM 33.1 °F 30.0 °F 27.0 °F 78% 30.13 in 10.0 mi SW 3.5 mph - N/A   Clear